Torna al catalogo

COSMOS 1818 COOLANT

LostLEO
NORAD 50772·DEBRIS·🇷🇺 Russia

Lanciato Feb 1, 1987 da Baikonur Cosmodrome

Loading…

Prossimi Passaggi (prossime 24 ore)

TLE

ObsoletoSource: Space-Track

Epoca: Nov 1, 2022, 10:14 UTC

1 50772U 87011AM  22305.42656872  .00000702  00000-0  28457-3 0  9998
2 50772  65.0145 323.0042 0012614 260.0029  99.9633 14.34391253468407

Traccia COSMOS 1818 COOLANT in tempo reale con AllMySat

Download on the App Store